DW4630 Toulon FR current weather conditions

sailwx.info

Wind from 040

Air temperature 11.7° C
Dewpoint 8.0° C

Last reported at 2020-Jan-27 09:02 UTC.
Time now 2020-Jan-27 09:37 UTC

Location: N 43°09' E 005°54'.
View on Google Maps.

See reports from other nearby stations

  
Tides and Currents Weather Stations Pressure Air Temp Water Temp Dewpoint Dewpoint Depression Visibility Wind Speed Wind Dir Waves Ship Positions
date/time (UTC)wind fromknots sea level pressurealtimeterstation pressurevisibilityair tempwater tempwave heightnotes
2020-Jan-27 09:02 040 11.7
2020-Jan-27 08:46 019 10.6
2020-Jan-27 08:31 019 10.6
2020-Jan-27 08:16 019 10.0
2020-Jan-27 08:00 360 9.4
2020-Jan-27 07:46 355 8.3
2020-Jan-27 07:31 355 7.8
2020-Jan-27 07:17 355 7.2
2020-Jan-27 07:01 355 7.2
2020-Jan-27 06:46 355 7.2
2020-Jan-27 06:32 355 7.2
2020-Jan-27 06:16 355 7.2
2020-Jan-27 06:01 355 7.2
2020-Jan-27 05:46 355 7.2
2020-Jan-27 05:30 355 7.2
2020-Jan-27 05:15 355 7.2
2020-Jan-27 05:01 355 7.8
2020-Jan-27 04:45 355 7.8
2020-Jan-27 04:31 355 8.3
2020-Jan-27 04:16 355 8.3
2020-Jan-27 04:01 034 7.8
2020-Jan-27 03:45 031 7.8
2020-Jan-27 03:16 040 7.8
2020-Jan-27 03:00 040 7.8
2020-Jan-27 02:45 040 7.8
2020-Jan-27 02:30 040 7.8
2020-Jan-27 02:15 040 7.8
2020-Jan-27 02:00 040 8.3
2020-Jan-27 01:45 040 8.3
2020-Jan-27 01:30 040 8.3
2020-Jan-27 01:15 040 8.9
2020-Jan-27 01:00 040 8.9
2020-Jan-27 00:45 033 8.9
2020-Jan-27 00:30 314 9.4
2020-Jan-27 00:15 031 9.4
2020-Jan-27 00:03 036 9.4
2020-Jan-27 00:00 044 9.4
2020-Jan-26 23:47 019 8.9
2020-Jan-26 23:32 301 9.4
2020-Jan-26 23:18 295 9.4
2020-Jan-26 23:02 285 9.4
2020-Jan-26 22:46 296 0 gusting 6 9.4
2020-Jan-26 22:32 287 1 gusting 6 9.4
2020-Jan-26 22:16 300 9.4
2020-Jan-26 22:01 044 9.4
2020-Jan-26 21:46 053 9.4
2020-Jan-26 21:32 053 9.4
2020-Jan-26 21:17 056 8.9
2020-Jan-26 21:01 056 9.4
2020-Jan-26 20:46 056 9.4
2020-Jan-26 20:31 056 9.4
2020-Jan-26 20:16 056 9.4
2020-Jan-26 20:02 056 9.4
2020-Jan-26 19:47 056 8.9
2020-Jan-26 19:31 056 8.9
2020-Jan-26 19:16 056 8.9
2020-Jan-26 19:02 056 8.9
2020-Jan-26 18:47 056 8.9
2020-Jan-26 18:31 056 8.9
2020-Jan-26 18:16 056 8.9
2020-Jan-26 18:01 057 8.9
2020-Jan-26 17:47 057 8.9
2020-Jan-26 17:32 057 8.9
2020-Jan-26 17:16 057 8.9
2020-Jan-26 17:01 057 8.9
2020-Jan-26 16:46 057 9.4
2020-Jan-26 16:31 057 9.4
2020-Jan-26 16:16 057 10.0
2020-Jan-26 16:01 057 10.0
2020-Jan-26 15:46 057 10.0
2020-Jan-26 15:30 057 10.0
2020-Jan-26 15:15 058 10.6
2020-Jan-26 15:02 058 10.6
2020-Jan-26 14:46 005 10.0
2020-Jan-26 14:31 340 10.0
2020-Jan-26 14:16 355 1 gusting 9 9.4
2020-Jan-26 14:00 317 4 gusting 12 10.0
2020-Jan-26 13:46 284 2 gusting 14 10.6
2020-Jan-26 13:31 040 0 gusting 4 11.1
2020-Jan-26 13:17 040 11.7
2020-Jan-26 13:00 040 11.7
2020-Jan-26 12:46 040 12.2
2020-Jan-26 12:30 068 12.2
2020-Jan-26 12:17 071 0 gusting 7 12.2
2020-Jan-26 12:01 066 3 gusting 6 12.8
2020-Jan-26 11:46 060 12.8
2020-Jan-26 11:31 060 0 gusting 6 12.8
2020-Jan-26 11:15 069 1 gusting 6 12.2
2020-Jan-26 11:00 059 12.2
2020-Jan-26 10:45 059 12.2
2020-Jan-26 10:30 074 12.2
2020-Jan-26 10:15 046 3 gusting 6 12.2
2020-Jan-26 10:00 070 4 gusting 9 12.2
2020-Jan-26 09:45 061 3 gusting 7 12.2
2020-Jan-26 09:30 066 4 gusting 8 12.2
2020-Jan-26 09:15 076 1 gusting 9 12.8
2020-Jan-26 09:00 043 3 gusting 8 13.3
2020-Jan-26 08:45 057 3 gusting 8 12.8
2020-Jan-26 08:30 056 3 gusting 9 11.7
2020-Jan-26 08:15 033 6 gusting 11 11.7
2020-Jan-26 08:00 053 4 gusting 11 11.1
2020-Jan-26 07:45 055 3 gusting 7 11.1
2020-Jan-26 07:30 047 0 gusting 10 10.6
2020-Jan-26 07:15 033 3 gusting 10 10.6
2020-Jan-26 07:00 355 5 gusting 10 10.6
2020-Jan-26 06:17 047 2 gusting 6 10.0
2020-Jan-26 06:03 027 4 gusting 9 10.0
2020-Jan-26 05:47 055 3 gusting 8 10.0
2020-Jan-26 05:33 005 3 gusting 10 10.0
2020-Jan-26 05:17 046 3 gusting 8 10.0
2020-Jan-26 05:01 050 4 gusting 9 10.0
2020-Jan-26 04:47 049 0 gusting 9 10.0
2020-Jan-26 04:32 062 4 gusting 11 10.0
2020-Jan-26 04:16 036 3 gusting 10 10.6
2020-Jan-26 04:02 015 6 gusting 9 10.0
2020-Jan-26 03:46 018 3 gusting 9 10.0
2020-Jan-26 03:31 046 1 gusting 6 10.0
2020-Jan-26 03:16 051 0 gusting 4 10.0
2020-Jan-26 03:01 052 3 gusting 6 10.0
2020-Jan-26 02:47 055 3 gusting 7 10.0
2020-Jan-26 02:31 073 2 gusting 6 10.6
2020-Jan-26 02:18 029 2 gusting 11 10.6
2020-Jan-26 02:01 051 5 gusting 9 10.6
2020-Jan-26 01:47 079 3 gusting 8 10.6
2020-Jan-26 01:32 059 5 gusting 10 10.6
2020-Jan-26 01:01 029 4 gusting 10 10.6
2020-Jan-26 00:46 041 5 gusting 11 10.6
2020-Jan-26 00:31 039 2 gusting 11 10.6
2020-Jan-26 00:16 057 3 gusting 7 10.6
2020-Jan-26 00:01 013 2 gusting 8 10.6
2020-Jan-25 23:45 067 2 gusting 7 10.6
2020-Jan-25 23:31 068 4 gusting 9 10.6
2020-Jan-25 23:15 072 3 gusting 10 10.6
2020-Jan-25 23:00 065 2 gusting 10 10.0
2020-Jan-25 22:45 068 4 gusting 8 10.0
2020-Jan-25 22:30 059 4 gusting 7 10.6
2020-Jan-25 22:15 078 3 gusting 6 10.6
2020-Jan-25 22:00 063 1 gusting 6 10.6
2020-Jan-25 21:45 051 4 gusting 9 10.6
2020-Jan-25 21:30 071 3 gusting 7 10.6
2020-Jan-25 21:15 060 3 gusting 7 10.6
2020-Jan-25 21:00 044 5 gusting 8 10.6
2020-Jan-25 20:45 058 2 gusting 6 10.6
2020-Jan-25 20:30 051 2 gusting 6 10.6
2020-Jan-25 20:15 054 0 gusting 6 10.0
2020-Jan-25 20:00 053 1 gusting 5 10.0
2020-Jan-25 19:49 053 2 gusting 5 10.0
2020-Jan-25 19:33 046 2 gusting 6 10.6
2020-Jan-25 19:17 040 1 gusting 6 10.6
2020-Jan-25 19:02 058 4 gusting 8 10.6
2020-Jan-25 18:46 047 2 gusting 7 10.6
2020-Jan-25 18:31 060 3 gusting 6 10.6
2020-Jan-25 18:17 069 1 gusting 4 10.6
2020-Jan-25 18:02 055 1 gusting 6 10.6
2020-Jan-25 17:46 054 1 gusting 7 11.1
2020-Jan-25 17:31 062 4 gusting 8 11.1
2020-Jan-25 17:17 060 4 gusting 7 11.1
2020-Jan-25 17:01 060 3 gusting 7 11.1
2020-Jan-25 16:46 101 2 gusting 6 11.7
2020-Jan-25 16:32 117 0 gusting 6 11.7
2020-Jan-25 16:16 118 2 gusting 6 11.7
2020-Jan-25 16:01 117 3 gusting 7 11.7
2020-Jan-25 15:46 103 3 gusting 6 12.2
2020-Jan-25 15:31 111 5 gusting 8 12.2
2020-Jan-25 15:16 116 12.2
2020-Jan-25 15:01 112 4 gusting 7 12.8
2020-Jan-25 14:47 130 3 gusting 6 12.8
2020-Jan-25 14:30 107 4 gusting 9 12.8
2020-Jan-25 14:16 121 6 gusting 8 12.8
2020-Jan-25 14:01 118 1 gusting 7 12.8
2020-Jan-25 13:47 111 1 gusting 7 12.8
2020-Jan-25 13:32 107 3 gusting 9 12.8
2020-Jan-25 13:16 136 1 gusting 9 12.8
2020-Jan-25 13:01 155 3 gusting 7 13.3
2020-Jan-25 12:45 106 4 gusting 10 13.9
2020-Jan-25 12:30 159 3 gusting 10 13.9
2020-Jan-25 12:17 078 13.3
2020-Jan-25 12:01 078 6 gusting 10 13.3
2020-Jan-25 11:46 119 4 gusting 8 13.9
2020-Jan-25 11:33 127 1 gusting 7 13.9
2020-Jan-25 11:16 118 2 gusting 7 13.9
2020-Jan-25 11:01 092 5 gusting 8 13.3
2020-Jan-25 10:46 102 6 gusting 12 13.3
2020-Jan-25 10:31 165 5 gusting 12 12.8
2020-Jan-25 10:15 092 6 gusting 13 13.9
2020-Jan-25 10:01 110 6 gusting 11 13.3
2020-Jan-25 09:45 113 6 gusting 10 13.3
2020-Jan-25 09:31 109 2 gusting 7 13.3
2020-Jan-25 09:15 079 3 gusting 6 12.8
2020-Jan-25 09:00 049 2 gusting 5 13.3